Aérodrome :
LOGIN :

S'inscrire | Disclaimer

   EN    FR    IT 

 










Légende :    VFR   VFR Marginal   IFR   IFR Intensif   IFR Très Intensif
Visi : 
Plafond : 
>= 8 km
>= 3000ft
5 à 8 km
1000 à 3000 ft
1500m à 5 km
500 à 1000 ft
800 à 1500m
200 à 500 ft
< 800m
< 200 ft
Symboles :   Orages  Brouillard  Fortes neiges  Fortes précipitations  Vent > 20 kt
SIGMETs :   Divers  Orages  Givrage  Turbulence  Onde Orograph.  Cendres Volcan.






- Altitude de l'aérodrome : 782 ft
- Code IATA : BGY


LIME - Orio al Serio International - Bergamo

DERNIER METAR :
  • 030950Z VRB03KT CAVOK 23/11 Q1009 NOSIG

METARs EXPIRÉS :
  • 030920Z VRB03KT CAVOK 22/12 Q1009 NOSIG
  • 030850Z VRB02KT CAVOK 21/11 Q1009 NOSIG
  • 030820Z VRB02KT CAVOK 20/10 Q1009 NOSIG
  • 030750Z VRB02KT CAVOK 20/11 Q1010 NOSIG
  • 030720Z VRB01KT CAVOK 19/13 Q1010 NOSIG
  • 030650Z VRB02KT CAVOK 18/12 Q1010 NOSIG

TAF TAF LIME
Valide du 03 à 06h jusqu'au 04 à 06h UTC


030500Z 0306/0406 VRB05KT 9999 FEW040
TEMPO 0312/0320 TSRA



MET'MAP, la Météo Aéronautique d'un coup d'oeil ! - Copyright ORBIFLY Décembre 2007 - Disclaimer

ORBIFLY MET'MAP TEAM :

Programmation & Développement : Alexandra Zaïnal
Sur une idée originale de : Baudouin d'Aumeries
Assistance à la programmation : Marc-Olivier Méhu
Soutien technique & logistique : Manuel Goepfert

Contact : metmap@orbifly.com




SOURCES & CREDITS :

   NOAA